Weather History for Konya, Turkey

Change the Weather History Date:

Saturday, February 2, 2013

  Actual Average Record
Temperature  
Mean Temperature 34 °F -  
Max Temperature 47 °F 46 °F 53 °F (1999)
Min Temperature 21 °F 27 °F 5 °F (2008)
Degree Days  
Heating Degree Days 31    
Moisture  
Dew Point 24 °F    
Average Humidity 69    
Maximum Humidity 97    
Minimum Humidity 32    
Precipitation  
Precipitation 0.00 in 0.04 in - ()
Sea Level Pressure  
Sea Level Pressure 30.00 in    
Wind  
Wind Speed 3 mph ()    
Max Wind Speed 9 mph    
Max Gust Speed -    
Visibility 7.6 miles    
Events      
Averages and records for this station are not official NWS values.
T = Trace of Precipitation, MM = Missing Value Source: Averaged Metar Reports

Daily Weather History Graph

Daily Weather History Graph

Search for Another Location

Airport:

Trip Planner

Search our weather history database for the weather conditions in past years. The results will help you decide how hot, cold, wet, or windy it might be!

Date:

Astronomy

Feb. 02, 2013 Rise Set
Actual Time 6:53 AM EET 5:14 PM EET
Civil Twilight 6:25 AM EET 5:41 PM EET
Nautical Twilight 5:54 AM EET 6:13 PM EET
Astronomical Twilight 5:23 AM EET 6:44 PM EET
Moon 11:56 PM EET (2/2) 9:58 AM EET (2/2)
Length of Visible Light 11h 16m
Length of Day
10h 20m
Waning Gibbous, 63% of the Moon is Illuminated
Feb 2
Waning Gibbous
Feb 3
Last Quarter
Feb 10
New
Feb 17
First Quarter
Feb 25
Full

Hourly Weather History & Observations

Time (EET) Temp. Windchill Dew Point Humidity Pressure Visibility Wind Dir Wind Speed Gust Speed Precip Events Conditions
12:50 AM 23.0 °F - 21.2 °F 93% 29.95 in 6.2 mi Calm Calm - N/A   Partly Cloudy
1:50 AM 21.2 °F - 19.4 °F 93% 29.95 in 6.2 mi Variable 1.2 mph - N/A   Partly Cloudy
2:00 AM 22 °F - 21 °F 92%  in 6 mi East 1.2 mph - -   Scattered Clouds
2:50 AM 23.0 °F 14.7 °F 21.2 °F 93% 29.95 in 6.2 mi NNE 6.9 mph - N/A   Partly Cloudy
3:50 AM 23.0 °F 17.0 °F 21.2 °F 93% 29.95 in 6.2 mi NE 4.6 mph - N/A   Partly Cloudy
4:50 AM 23.0 °F 17.0 °F 21.2 °F 93% 29.95 in 6.2 mi North 4.6 mph - N/A   Partly Cloudy
5:50 AM 23.0 °F 17.0 °F 21.2 °F 93% 29.98 in 6.2 mi North 4.6 mph - N/A   Partly Cloudy
6:50 AM 21.2 °F 12.6 °F 19.4 °F 93% 29.98 in 6.2 mi NNE 6.9 mph - N/A   Partly Cloudy
7:50 AM 26.6 °F - 24.8 °F 93% 30.01 in 6.2 mi North 2.3 mph - N/A   Partly Cloudy
8:00 AM 26 °F - 26 °F 97%  in 12 mi North 2.3 mph - -   Scattered Clouds
8:50 AM 30.2 °F - 26.6 °F 86% 30.01 in - Calm Calm - N/A   Clear
9:50 AM 33.8 °F - 26.6 °F 75% 30.04 in - Calm Calm - N/A   Clear
10:50 AM 37.4 °F 31.4 °F 23.0 °F 56% 30.01 in - South 8.1 mph - N/A   Clear
11:50 AM 41.0 °F 36.4 °F 23.0 °F 49% 30.01 in - South 6.9 mph - N/A   Clear
12:50 PM 42.8 °F 38.6 °F 21.2 °F 42% 29.98 in - South 6.9 mph - N/A   Clear
1:50 PM 44.6 °F 40.7 °F 24.8 °F 46% 29.98 in - South 6.9 mph - N/A   Clear
2:00 PM 45 °F - 25 °F 32%  in 12 mi South 6.9 mph - -   Clear
2:50 PM 46.4 °F 42.9 °F 23.0 °F 40% 29.98 in - South 6.9 mph - N/A   Clear
3:50 PM 46.4 °F 44.3 °F 28.4 °F 50% 29.98 in - SSE 4.6 mph - N/A   Clear
4:50 PM 44.6 °F 43.1 °F 28.4 °F 53% 29.98 in - South 3.5 mph - N/A   Clear
5:50 PM 42.8 °F - 26.6 °F 53% 30.01 in - Calm Calm - N/A   Clear
6:50 PM 41.0 °F - 26.6 °F 57% 30.01 in - Calm Calm - N/A   Clear
7:50 PM 41.0 °F - 26.6 °F 57% 30.04 in - Calm Calm - N/A   Clear
8:00 PM 42 °F - 26 °F 41%  in 12 mi Calm Calm - -  
8:50 PM 39.2 °F 35.9 °F 26.6 °F 61% 30.04 in - SSE 4.6 mph - N/A   Clear
9:50 PM 37.4 °F - 26.6 °F 65% 30.06 in - SE 2.3 mph - N/A   Clear
10:50 PM 35.6 °F 29.2 °F 26.6 °F 70% 30.06 in - South 8.1 mph - N/A   Clear
11:50 PM 35.6 °F 28.6 °F 26.6 °F 70% 30.06 in - SSE 9.2 mph - N/A   Clear